• Join FlightAware (Why Join?)
  • Login
  • US Flag 
08:59AM EDT


 

Airport Tracker/Info


-or-


 

Live Flight TrackerFlight Track Log ✈ AWE1600 ✈ 26-Apr-2013 ✈ KPHL - KDTW

Flight Track Log - Related Links

Times and Time Zones

All times are in EDT time to prevent confusion due to time zone crossing. See the AWE1600 flight status page for this flight to view local times or setup timezone preferences in your user account.

Time Position Orientation Groundspeed Altitude Reporting Facility
EDT Latitude Longitude Course Direction KTS MPH feet Rate Location/Type
09:25AM 39.8667 -75.2833 270° West 156 180 800  Level Philadelphia TRACON
09:27AM 39.8425 -75.4211 257° West 229 264 5,600 2,520 Climbing New York Center
09:28AM 39.8514 -75.5111 277° West 241 277 8,800 2,160 Climbing New York Center
09:29AM 39.8603 -75.6036 277° West 260 299 10,000 1,560 Climbing New York Center
09:30AM 39.8678 -75.7203 275° West 297 342 11,900 2,400 Climbing New York Center
09:31AM 39.9000 -75.9337 270° West  Level FlightAware Approximate
09:31AM 39.8794 -75.8431 277° West 323 372 14,800  Level New York Center
09:32AM 39.8925 -75.9739 277° West 342 394 17,700 2,160 Climbing New York Center
09:33AM 39.9039 -76.0911 277° West 352 405 19,200 1,860 Climbing New York Center
09:34AM 39.9139 -76.2353 275° West 363 418 21,500 1,860 Climbing New York Center
09:35AM 39.9264 -76.3689 277° West 368 423 23,000 840 Climbing New York Center
09:36AM 39.9408 -76.5056 278° West 374 430 23,200 900 Climbing New York Center
09:37AM 39.9486 -76.6442 274° West 379 436 24,800 1,560 Climbing New York Center
09:38AM 39.9622 -76.7836 277° West 384 442 26,300 1,680 Climbing New York Center
09:39AM 39.9736 -76.9283 276° West 394 453 28,200 1,560 Climbing New York Center
09:40AM 39.9869 -77.0703 277° West 394 453 29,500 1,200 Climbing New York Center
09:41AM 40.0111 -77.2053 283° West 394 453 30,700 1,260 Climbing New York Center
09:42AM 40.0583 -77.3317 296° West 380 437 32,000 1,140 Climbing New York Center
09:43AM 40.0631 -77.4678 273° West 380 437 33,000 540 Climbing New York Center
09:44AM 40.0514 -77.5997 263° West 380 437 33,100 600 Climbing New York Center
09:45AM 40.0433 -77.7058 264° West 363 418 34,200 960 Climbing Cleveland Center
09:46AM 40.0339 -77.8336 265° West 358 412 35,000 360 Climbing Cleveland Center
09:47AM 40.0439 -77.9850 275° West 364 419 35,000  Level Cleveland Center
09:48AM 40.0572 -78.1203 277° West 375 432 35,000  Level Cleveland Center
09:49AM 40.0683 -78.2581 276° West 386 444 35,000  Level Cleveland Center
09:50AM 40.0794 -78.3961 276° West 386 444 35,000  Level Cleveland Center
09:51AM 40.0925 -78.5314 277° West 386 444 35,000  Level Cleveland Center
09:52AM 40.1033 -78.6694 276° West 386 444 35,000  Level Cleveland Center
09:53AM 40.1158 -78.8075 277° West 386 444 35,000  Level Cleveland Center
09:54AM 40.1264 -78.9486 276° West 386 444 35,000  Level Cleveland Center
09:55AM 40.1386 -79.0894 277° West 386 444 35,000  Level Cleveland Center
09:56AM 40.1653 -79.2247 285° West 386 444 35,000 -360 Level Cleveland Center
09:57AM 40.2106 -79.3517 295° West 386 444 34,300 -780 Descending Cleveland Center
09:58AM 40.2558 -79.4786 295° West 386 444 33,500 -660 Descending Cleveland Center
09:59AM 40.2986 -79.6058 294° West 392 451 33,000 -300 Descending Cleveland Center
10:00AM 40.3414 -79.7386 293° West 392 451 33,000 -360 Level Cleveland Center
10:01AM 40.3858 -79.8689 294° West 392 451 32,300 -840 Descending Cleveland Center
10:02AM 40.4283 -79.9994 293° West 392 451 31,400 -900 Descending Cleveland Center
10:03AM 40.4728 -80.1356 293° West 392 451 30,500 -720 Descending Cleveland Center
10:04AM 40.5169 -80.2692 294° West 392 451 30,000 -300 Descending Cleveland Center
10:05AM 40.5569 -80.3836 295° West 392 451 30,000  Level Cleveland Center
10:06AM 40.5986 -80.5203 292° West 398 458 30,000  Level Cleveland Center
10:07AM 40.6425 -80.6517 294° West 398 458 30,000  Level Cleveland Center
10:08AM 40.6944 -80.7803 298° West 398 458 30,000  Level Cleveland Center
10:09AM 40.7547 -80.9039 303° West 398 458 30,000  Level Cleveland Center
10:10AM 40.8147 -81.0275 303° West 403 464 30,000  Level Cleveland Center
10:11AM 40.8767 -81.1625 301° West 408 470 30,000  Level Cleveland Center
10:12AM 40.9364 -81.2867 303° West 408 470 30,000 -480 Level Cleveland Center
10:13AM 40.9961 -81.4083 303° West 408 470 29,100 -960 Descending Cleveland Center
10:14AM 41.0556 -81.5303 303° West 402 463 28,100 -1,020 Descending Cleveland Center
10:15AM 41.1108 -81.6497 302° West 392 451 27,100 -960 Descending Cleveland Center
10:16AM 41.1639 -81.7497 305° West 386 444 26,200 -960 Descending Cleveland Center
10:17AM 41.2211 -81.8694 302° West 381 438 25,200 -1,500 Descending Cleveland Center
10:18AM 41.2758 -81.9839 302° West 381 438 23,200 -1,980 Descending Cleveland Center
10:19AM 41.3328 -82.1039 302° West 381 438 21,300 -1,920 Descending Cleveland Center
10:20AM 41.3936 -82.2272 303° West 371 427 19,400 -1,800 Descending Cleveland Center
10:21AM 41.4547 -82.3286 309° West 365 420 17,800 -2,040 Descending Cleveland Center
10:22AM 41.5197 -82.4331 310° West 347 399 15,100 -2,400 Descending Cleveland Center
10:23AM 41.5744 -82.5261 308° West 348 400 13,000 -1,680 Descending Cleveland Center
10:24AM 41.6292 -82.6194 308° West 337 388 12,000 -780 Descending Cleveland Center
10:25AM 41.6494 -82.6478 314° West 318 366 12,000  Level Cleveland Center
10:25AM 41.6839 -82.7103 306° West 325 374 12,000  Level Cleveland Center
10:26AM 41.7061 -82.7497 307° West 316 364 12,000  Level Cleveland Center
10:26AM 41.7406 -82.8011 312° West 320 368 12,000  Level Cleveland Center
10:27AM 41.7753 -82.8356 324° Northwest 313 360 12,000  Level Cleveland Center
10:27AM 41.8036 -82.8756 314° West 314 361 12,000  Level Cleveland Center
10:28AM 41.8281 -82.9044 319° Northwest 310 357 12,000  Level Cleveland Center
10:29AM 41.8931 -82.9822 318° Northwest 309 356 12,000  Level Cleveland Center
10:29AM 41.9339 -83.0311 318° Northwest 309 356 12,000  Level Cleveland Center
10:30AM 41.9928 -83.1031 318° Northwest 304 350 12,000  Level Cleveland Center
10:31AM 42.0150 -83.1264 322° Northwest 259 298 12,000  Level Cleveland Center
10:31AM 42.0475 -83.1669 317° Northwest 283 326 12,000  Level Cleveland Center
10:32AM 42.0678 -83.1928 317° Northwest 260 299 12,000  Level Cleveland Center
10:32AM 42.0964 -83.2192 326° Northwest 254 292 12,000 -540 Level Cleveland Center
10:33AM 42.1294 -83.2289 348° North 209 241 11,400 -1,920 Descending Cleveland Center
10:34AM 42.1858 -83.2258 North 225 259 9,200 -2,160 Descending Cleveland Center
10:35AM 42.2431 -83.1833 29° Northeast 228 262 7,100 -1,980 Descending Cleveland Center
10:36AM 42.3086 -83.1522 19° North 230 265 5,000 -1,920 Descending Cleveland Center
10:37AM 42.3428 -83.2069 310° West 213 245 3,300 -1,080 Descending Cleveland Center
10:38AM 42.3206 -83.2622 241° Southwest 165 190 3,000 -300 Descending Cleveland Center